Regional Weather Roundup
Issued by NWS Albany, NY

Home | Current Version | Previous Version | Text Only | Print | Product List | Glossary On
Versions: 1 2 3 4 5 6 7 8 9 10 11 12 13 14 15 16 17 18 19 20 21 22 23 24 25 26 27
000
ASUS41 KALY 272210
RWRALY

NEW YORK STATE HOURLY WEATHER ROUNDUP
NATIONAL WEATHER SERVICE ALBANY NY
600 PM EDT WED JUL 27 2016

NOTE: "FAIR" INDICATES FEW OR NO CLOUDS BELOW 12,000 FEET WITH NO
SIGNIFICANT WEATHER AND/OR NO OBSTRUCTIONS TO VISIBILITY.

NYZ032-033-038>043-046>054-057>066-NYZ062>081-082-084-272300-
EAST


CITY           SKY/WX    TMP DP  RH WIND       PRES   REMARKS
ALBANY         MOSUNNY   89  59  36 W8        29.88F
GLENS FALLS    SUNNY     88  61  40 S12       29.86S
POUGHKEEPSIE   SUNNY     91  58  32 SW7       29.87F HX  90
NEWBURGH       MOSUNNY   88  61  40 W12       29.92F
MONTGOMERY     SUNNY     88  61  40 W5        29.90F
WHITE PLAINS   MOSUNNY   89  58  34 W7        29.90S
ISLIP          MOSUNNY   83  67  58 S9        29.89F
NEW YORK CITY  MOSUNNY   90  65  43 SE13      29.87F HX  92
CENTRAL PARK   SUNNY     87  63  44 SW5       29.91F
$$

NYZ005>009-017-018-044>046-055-056-272300-
CENTRAL


CITY           SKY/WX    TMP DP  RH WIND       PRES   REMARKS
FULTON         SUNNY     90  62  39 SW8       29.89F HX  90
SYRACUSE       PTSUNNY   85  60  42 SW8       29.89F
ROME           SUNNY     84  60  44 W8        29.90F
ELMIRA         PTSUNNY   90  57  32 NE6       29.91F
BINGHAMTON     SUNNY     85  53  33 MISG      29.96F
MONTICELLO     SUNNY     82  57  42 CALM      29.98S
$$

NYZ026>034-041>043-087-272300-
NORTH


CITY           SKY/WX    TMP DP  RH WIND       PRES   REMARKS
WATERTOWN      SUNNY     85  58  39 SW9       29.87F
FORT DRUM      NOT AVBL
MASSENA        MOSUNNY   83  62  49 SW8       29.84F
SARANAC LAKE   CLOUDY    81  57  43 SW9       29.92F
PLATTSBURGH    SUNNY     86  63  45 E5        29.83F
$$

NYZ001>004-010>016-019>021-085-272300-
WEST


CITY           SKY/WX    TMP DP  RH WIND       PRES   REMARKS
NIAGARA FALLS  CLOUDY    87  59  38 SW17      29.91S
BUFFALO        PTSUNNY   83  63  50 SW15      29.93S
DUNKIRK        SUNNY     82  64  54 W10       29.95F
JAMESTOWN      SUNNY     81  59  47 NW9       30.00S
WELLSVILLE     SUNNY     84  56  38 NW5       30.02S
ROCHESTER      PTSUNNY   89  64  43 W9        29.90S HX  90
PENN YAN       SUNNY     87  60  40 W5        29.94R
$$

             KEY
       WCI = WIND CHILL INDEX
       VSB = VISIBILITY
       HX  = HEAT INDEX
$$




USA.gov is the U.S. government's official web portal to all federal, state and local government web resources and services.